Погода в Нижнем Баскунчаке

Россия / Астраханская область     48°13′12″N   46°49′51″E
темп.,
°C
ветер,
м/с
пор.,
м/с
влажн.,
%
обл.,
%
осадки,
мм/ч
давл.,
гПа
погр.,
м
22 апреля, чт
чт2201:00+10ссз22842 0.0 102114
04:00+10ссз3381100 0.0 102129
07:00+10с3484100 0.0 1022105
10:00+14ссв2265100 0.0 1023526
13:00+15сз1158100 0.0 1023897
16:00+17всв134633 0.0 10221632
19:00+16вюв335597 0.0 102274
22:00+13в336282 0.0 102336
23 апреля, пт
пт2301:00+11в3369100 0.0 102240
04:00+10св3476100 0.0 102279
07:00+9св4784100 0.0 1021264
10:00+13ссв4561100 0.0 1021595
13:00+13с3459100 0.0 1019780
16:00+14всв3357100 0.0 1019974
19:00+12всв226499 0.0 1018186
22:00+10юв227198 0.0 101843
24 апреля, сб
сб2401:00+10ююз12756 0.0 101717
04:00+9зсз33885 0.0 101650
07:00+10з368678 0.0 1017196
10:00+14зюз676329 0.0 1017699
13:00+18з794130 0.0 10162267
16:00+18зюз7104497 0.0 10162289
19:00+16юз7125324 0.0 1016563
22:00+14з5106483 0.1 1017351
25 апреля, вс
вс2501:00+12зюз378097 0.1 1017277
04:00+11з3679100 0.1 1018268
07:00+10зюз3585100 0.0 1019179
10:00+14зюз6854100 0.0 10191335
13:00+16з794191 0.0 10191843
16:00+15з7741100 0.0 10191714
19:00+13зсз5641100 0.0 1020616
22:00+11сз3545100 0.0 1021199
26 апреля, пн
пн2601:00+10ссв3450100 0.0 1020144
04:00+10св5855100 0.0 1020521
07:00+9св4858100 0.0 1019579
10:00+8всв5864100 0.3 1019538
13:00+10св5653100 0.0 1018614
16:00+10св3557100 0.0 1016553
19:00+8сз3474100 0.4 1016180
22:00+8зсз3487100 1.4 1015180